Regional Weather Roundup
Issued by NWS

Home | Current Version | Previous Version | Graphics & Text | Print | Product List | Glossary On
Versions: 1 2 3 4 5 6 7 8 9 10 11 12 13 14 15 16 17 18 19 20 21 22 23 24 25 26 27 28 29 30 31 32 33 34 35 36 37 38 39 40 41 42 43 44 45 46 47 48 49 50
000
ASUS45 KTFX 282119
RWRMT
MONTANA HOURLY WEATHER ROUNDUP
NATIONAL WEATHER SERVICE GREAT FALLS MT
319 PM MDT SAT MAR 28 2015

NOTE: "FAIR" INDICATES FEW OR NO CLOUDS BELOW 12000 FEET WITH NO
SIGNIFICANT WEATHER AND/OR OBSTRUCTIONS TO VISIBILITY.

* THESE STATIONS ARE NOT UNDER NWS QUALITY CONTROL. THEY DO NOT
   REPORT WEATHER SUCH AS PRECIPITATION OR FOG.

MTZ001>007-043-282200-
WEST OF THE DIVIDE
CITY           SKY/WX    TMP DP  RH WIND       PRES   REMARKS
KALISPELL      CLOUDY    50  32  50 W16G23    29.99R
MISSOULA       CLOUDY    52  30  43 W20G28    30.11R
BUTTE          PTSUNNY   48  18  30 W17G36    30.05R
MULLAN PASS    CLOUDY    32  30  92 N/A       30.08R
* ESSEX        N/A       43  32  65 S7G15      N/A
* EUREKA APT   CLOUDY    50  34  54 SW3       30.01R
* HAMILTON APT PTCLDY    46  32  58 NW6       30.16R
* LIBBY APT    PTSUNNY   54  36  51 CALM      30.05S
* LINCOLN      N/A       46  24  42 SW13G32    N/A
* LOOKOUT PASS N/A       40  36  86 VRB6       N/A   WCI  36
* POLSON       N/A       52  36  55 SW5G14     N/A
* SEELEY LAKE  N/A       46  26  46 W13G26     N/A
* THOMP F APT  PTSUNNY   56  23  28 NW8G22     N/A
$$

MTZ008-052>055-282200-
SOUTHWEST MONTANA
CITY           SKY/WX    TMP DP  RH WIND       PRES   REMARKS
BOZEMAN        PTCLDY    55  16  21 W26G39    29.98R
DILLON         PTSUNNY   48  18  30 W25G31    30.09R
* W YELLOWSTON PTCLDY    56  31  39 W9G23      N/A
* BOULDER HILL N/A       45  17  32 S21G41     N/A
* HOMESTAKE PS N/A       42  17  36 NW14G34    N/A
* MONIDA PASS  N/A       49  24  38 W20G30     N/A
* RAYNOLDS PAS N/A       52  41  66 SW9G26     N/A
* WHITEHALL    N/A       55  16  21 W17G32     N/A
* WISE RIVER   N/A       45  22  40 W25G41     N/A
$$

MTZ009>010-012-014-046-048-049-054-282200-
EAST SLOPES AND CENTRAL MONTANA
CITY           SKY/WX    TMP DP  RH WIND       PRES   REMARKS
CUT BANK       CLOUDY    48  25  41 W30G39    29.77R
GREAT FALLS    SUNNY     55  21  27 W44G58    29.81F
HELENA         PTCLDY    54  21  27 W29G41    29.96R
MALMSTROM AFB  PTCLDY    55  21  27 W32G49    29.84S
* CONRAD       PTCLDY    55  27  34 S32G45     N/A
* DEARBORN     N/A       53  25  34 NE26G42    N/A
* EAST GLACIER N/A       39  32  76 W27G43     N/A   WCI  28
* MONARCH      N/A       47  17  30 W34G49     N/A
* PENDROY      N/A       50  25  38 W34G47     N/A
* ROGERS PASS  N/A       38  26  62 SE9G26     N/A   WCI  32
* SAINT MARY   N/A       40  32  73 SW14G36    N/A   WCI  32
* WHITE SULPH  N/A       49  20  32 W12G30     N/A
$$

MTZ011-013-016-021-035-040-045-047-050-051-282200-
NORTH CENTRAL MONTANA
CITY           SKY/WX    TMP DP  RH WIND       PRES   REMARKS
HAVRE          CLOUDY    55  30  39 W33G44    29.71R
LEWISTOWN      PTSUNNY   55  19  24 W36G48    29.82R
* N BAR RANCH  PTCLDY    54  25  33 W32G52    29.77R
* CHINOOK      CLOUDY    55  34  45 W31G40    29.67F
* FORT BENTON  PTSUNNY  N/A N/A N/A N/A       29.77F
* CHESTER      N/A       54  24  31 W27G46     N/A
* DENTON       N/A       58  25  28 W38G54     N/A
* GEYSER       N/A       55  22  28 W34G51     N/A
* JUDITH GAP   N/A       53  25  34 W28G34     N/A
* LOMA         N/A       55  26  33 SW22G43    N/A
$$

MTZ017>020-022>027-061-062-282200-
NORTHEAST MONTANA
CITY           SKY/WX    TMP DP  RH WIND       PRES   REMARKS
GLASGOW        LGT RAIN  63  43  48 NW39G51   29.57R
GLENDIVE       SUNNY     81  36  20 SW24G32   29.48F
JORDAN         CLOUDY    63  45  52 W29G39    29.63R
SIDNEY         PTCLDY    79  36  21 SW22G31   29.44F
WOLF POINT     CLOUDY    75  37  25 W37G45    29.48R
* BEAVER HILL  N/A       79  33  19 S20G33     N/A
* CIRCLE       N/A       68  45  44 SW28G44    N/A
* LINDSAY DVD  N/A       76  31  19 SW20G30    N/A
* NAVAJO       N/A       63  45  52 NW19G28    N/A
* POPLAR APT   CLOUDY    75  37  25 W23G37    29.44F
* SACO         N/A       57  47  69 NW20G37    N/A
$$

MTZ028>042-056>058-282200-
SOUTHCENTRAL AND SOUTHEAST MONTANA
CITY           SKY/WX    TMP DP  RH WIND       PRES   REMARKS
BAKER          SUNNY     81  32  17 SW18G36   29.56F
BILLINGS       PTCLDY    63  30  29 NW44G58   29.74R
LIVINGSTON     CLOUDY    52  32  47 W26G35    29.92F
MILES CITY     PTSUNNY   77  30  18 W26G33    29.53F
* BIG TIMBER A PTSUNNY   46  37  71 W18G32    29.89F
* FORSYTH APT  CLOUDY    66  41  40 W31G46    29.58R
* ALZADA       N/A       80  31  17 SW10G17    N/A
* HYSHAM       N/A       67  28  23 NW19G36    N/A
* LAME DEER    N/A       72  23  16 W19G29     N/A
* REED POINT   N/A       55  37  51 W22G31     N/A
* ROSCOE HILL  N/A       50  19  29 W7G26      N/A
$$

REGIONAL REPORTS...DAKOTAS
CITY           SKY/WX    TMP DP  RH WIND       PRES   REMARKS
WILLISTON      PTSUNNY   79  36  21 SW17G24   29.44F
DICKINSON      PTCLDY    79  34  20 SW24G32   29.53F
BEACH          SUNNY     77  30  18 W14       29.53F
CROSBY         SUNNY     72  39  30 SW12      29.44F
TIOGA          SUNNY     75  36  24 SW20G25   29.48F
WATFORD CITY   SUNNY     79  36  21 SW23G29   29.44F
BISMARCK       SUNNY     64  36  35 S21G26    29.65F
GRAND FORKS    PTSUNNY   48  30  50 S29G40    29.81F
FARGO          SUNNY     52  27  38 S26G33    29.88F
BUFFALO SD     PTCLDY    79  32  18 SW15G29   29.55F
RAPID CITY     SUNNY     82  25  12 SW23G32   29.65F
$$

REGIONAL REPORTS...WYOMING/IDAHO/WASHINGTON
CITY           SKY/WX    TMP DP  RH WIND       PRES   REMARKS
GILLETTE       PTCLDY    75  25  15 SW22G35   29.69F
SHERIDAN       PTCLDY    75  25  15 W9G20     29.67F
CODY           PTCLDY    64  21  19 SW16G35   29.85R
YELLOWSTONE LA PTSUNNY   46  27  48 W8G28     30.01F
SALMON         PTSUNNY   55  23  29 E6        30.11F
MULLAN PASS    CLOUDY    32  30  92 N/A       30.08S
SAND POINT     PTCLDY    52  43  72 S9G17     30.10R
SPOKANE        PTSUNNY   55  36  49 SW29G35   30.14R
$$

REGIONAL REPORTS...ALBERTA
CITY           SKY/WX    TMP DP  RH WIND       PRES   REMARKS
CALGARY        LGT RAIN  45  37  74 N26       29.80R
LETHBRIDGE     LGT RAIN  43  39  86 NW36G41   29.77R
MEDICINE HAT   LGT RAIN  46  45  96 W20G26    29.66R
EDMONTON       CLOUDY    45  37  74 NW22G31   29.76R
WATERTON GATE  N/A       39  32  76 SW21G31    N/A   WCI  29
CARDSTON       N/A       45  34  65 W26G41     N/A
MILK RIVER     N/A       52  28  40 W35G44     N/A
$$

REGIONAL REPORTS...SASKATCHEWAN
CITY           SKY/WX    TMP DP  RH WIND       PRES   REMARKS
SWIFT CURRENT  LGT RAIN  50  46  86 W15       29.51R
REGINA         CLOUDY    55  45  69 NW14      29.45R
VAL MARIE      N/A       57  41  55 W31G41     N/A
ASSINIBOIA     N/A       55  45  69 W16G23     N/A
CORONACH       N/A       61  50  67 W8         N/A

$$




USA.gov is the U.S. government's official web portal to all federal, state and local government web resources and services.